Regional Weather Roundup
Issued by NWS

Home | Current Version | Previous Version | Graphics & Text | Print | Product List | Glossary Off
Versions: 1 2 3 4 5 6 7 8 9 10 11 12 13 14 15 16 17 18 19 20 21 22 23 24 25 26 27 28 29 30 31 32 33 34 35 36 37 38 39 40 41 42 43 44 45 46 47 48 49 50

000
ASUS43 KTOP 270059
RWRKS

WEATHER ROUNDUP FOR KANSAS
NATIONAL WEATHER SERVICE GOODLAND KS
700 PM CST FRI DEC 26 2014

NOTE:  "FAIR" INDICATES FEW OR NO CLOUDS BELOW 12,000 FEET WITH NO
SIGNIFICANT WEATHER AND/OR OBSTRUCTIONS TO VISIBILITY.

KSZ001>006-013>018-027>032-041>047-270200-
NORTHWEST KANSAS

CITY           SKY/WX    TMP DP  RH WIND       PRES   REMARKS
GOODLAND       LGT SNOW  19  17  92 N10       30.04R FOG     WCI   7
HAYS           CLOUDY    27  18  69 N7        30.04R
HILL CITY      CLOUDY    25  22  88 N8        30.05R
RUSSELL        LGT SNOW  28  27  96 N9        30.02R VSB 1
$$

KSZ061>065-074>080-084>089-270200-
SOUTHWEST KANSAS

CITY           SKY/WX    TMP DP  RH WIND       PRES   REMARKS
DODGE CITY     CLOUDY    27  23  85 NW9       30.04R
ELKHART          N/A     24  19  81 N5          N/A
GARDEN CITY    CLOUDY    24  22  91 N9        30.05R
GREAT BEND     CLOUDY    28  25  86 N9        30.04R
LIBERAL        MOCLDY    27  19  74 N8        30.07R
$$

KSZ066>073-081>083-090>101-270200-
SOUTHEAST KANSAS

CITY           SKY/WX    TMP DP  RH WIND       PRES   REMARKS
CHANUTE        LGT RAIN  44  40  85 NW8       29.96R
COFFEYVILLE    CLOUDY    53  50  89 S9        29.94R
HUTCHINSON     CLOUDY    32  29  88 N9        29.99R FOG
MEDICINE LODGE   N/A     32  29  88 NW8       30.03R
NEWTON         CLOUDY    32  27  80 N9        30.01R
PARSONS        CLOUDY    48  44  86 N8        29.96R
WICHITA INTL   CLOUDY    35  31  85 NW10      30.00R WCI  27
WICHITA JABRA  CLOUDY    34  31  88 N10       29.99R WCI  26
WINFIELD       CLOUDY    39  34  82 N10       29.99R WCI  32
$$

KSZ007>012-019>026-033>040-048>060-102>105-270200-
NORTHEAST KANSAS

CITY           SKY/WX    TMP DP  RH WIND       PRES   REMARKS
CONCORDIA      CLOUDY    29  29 100 N9        30.02R FOG
EMPORIA        CLOUDY    37  33  85 N9        29.95F
LAWRENCE       CLOUDY    39  33  79 NW8       29.99R
MANHATTAN      CLOUDY    34  32  92 N6        29.99R
OLATHE IND     CLOUDY    40  35  83 NW8       29.96R
OLATHE EXE     CLOUDY    42  35  76 N7        29.94R
SALINA         CLOUDY    32  30  92 NW10      30.03R FOG     WCI  24
TOPEKA BILLARD CLOUDY    39  34  82 N6        29.99S
TOPEKA FORBES  CLOUDY    39  33  79 N8        29.97S
$$


USA.gov is the U.S. government's official web portal to all federal, state and local government web resources and services.